Time,TemperatureF,DewpointF,PressureIn,WindDirection,WindDirectionDegrees,WindSpeedMPH,WindSpeedGustMPH,Humidity,HourlyPrecipIn,Conditions,Clouds,dailyrainin,SoftwareType,DateUTC
2013-03-03 00:01:00,49.5,29.0,29.99,South,183,0.0,2.0,45,0.00,,,0.00,Wunderground v.1.15,2013-03-03 07:01:00,
2013-03-03 00:07:00,49.3,28.8,29.98,South,183,0.0,0.0,45,0.00,,,0.00,Wunderground v.1.15,2013-03-03 07:07:00,
2013-03-03 00:13:00,48.5,28.6,29.98,South,183,0.0,0.0,46,0.00,,,0.00,Wunderground v.1.15,2013-03-03 07:13:00,
2013-03-03 00:19:00,48.3,29.0,29.98,South,183,1.0,1.0,47,0.00,,,0.00,Wunderground v.1.15,2013-03-03 07:19:00,
2013-03-03 00:24:00,48.3,28.5,29.98,South,184,1.0,1.0,46,0.00,,,0.00,Wunderground v.1.15,2013-03-03 07:24:00,
2013-03-03 00:30:00,48.1,28.3,29.98,South,184,1.0,1.0,46,0.00,,,0.00,Wunderground v.1.15,2013-03-03 07:30:00,
2013-03-03 00:36:00,47.5,28.8,29.98,South,184,1.0,2.0,48,0.00,,,0.00,Wunderground v.1.15,2013-03-03 07:36:00,
2013-03-03 00:42:00,47.5,29.3,29.98,South,183,1.0,2.0,49,0.00,,,0.00,Wunderground v.1.15,2013-03-03 07:42:00,
2013-03-03 00:47:00,47.0,28.8,29.98,South,183,1.0,1.0,49,0.00,,,0.00,Wunderground v.1.15,2013-03-03 07:47:00,
2013-03-03 00:53:00,47.1,28.9,29.99,South,183,0.0,1.0,49,0.00,,,0.00,Wunderground v.1.15,2013-03-03 07:53:00,
2013-03-03 00:59:00,47.0,28.8,29.98,South,183,0.0,1.0,49,0.00,,,0.00,Wunderground v.1.15,2013-03-03 07:59:00,
2013-03-03 01:05:00,47.2,29.0,29.98,South,183,1.0,1.0,49,0.00,,,0.00,Wunderground v.1.15,2013-03-03 08:05:00,
2013-03-03 01:11:00,46.7,29.0,29.98,South,183,0.0,1.0,50,0.00,,,0.00,Wunderground v.1.15,2013-03-03 08:11:00,
2013-03-03 01:17:00,46.7,29.5,29.98,South,184,1.0,1.0,51,0.00,,,0.00,Wunderground v.1.15,2013-03-03 08:17:00,
2013-03-03 01:23:00,47.0,29.3,29.98,South,183,0.0,1.0,50,0.00,,,0.00,Wunderground v.1.15,2013-03-03 08:23:00,
2013-03-03 01:28:00,46.6,29.9,29.98,South,183,0.0,0.0,52,0.00,,,0.00,Wunderground v.1.15,2013-03-03 08:28:00,
2013-03-03 01:34:00,45.7,28.6,29.98,South,184,0.0,0.0,51,0.00,,,0.00,Wunderground v.1.15,2013-03-03 08:34:00,
2013-03-03 01:40:00,45.1,29.0,29.98,South,184,0.0,0.0,53,0.00,,,0.00,Wunderground v.1.15,2013-03-03 08:40:00,
2013-03-03 01:46:00,44.5,28.9,29.98,South,183,0.0,0.0,54,0.00,,,0.00,Wunderground v.1.15,2013-03-03 08:46:00,
2013-03-03 01:51:00,44.0,29.3,29.98,South,184,0.0,0.0,56,0.00,,,0.00,Wunderground v.1.15,2013-03-03 08:51:00,
2013-03-03 01:56:00,43.5,28.4,29.98,South,183,0.0,0.0,55,0.00,,,0.00,Wunderground v.1.15,2013-03-03 08:56:00,
2013-03-03 02:01:00,43.7,28.6,29.98,South,183,0.0,0.0,55,0.00,,,0.00,Wunderground v.1.15,2013-03-03 09:01:00,
2013-03-03 02:06:00,43.6,28.9,29.98,South,183,0.0,0.0,56,0.00,,,0.00,Wunderground v.1.15,2013-03-03 09:06:00,
2013-03-03 02:11:00,43.2,28.5,29.97,South,183,1.0,1.0,56,0.00,,,0.00,Wunderground v.1.15,2013-03-03 09:11:00,
2013-03-03 02:16:00,43.0,28.8,29.97,South,183,0.0,0.0,57,0.00,,,0.00,Wunderground v.1.15,2013-03-03 09:16:00,
2013-03-03 02:21:00,42.6,28.4,29.97,South,183,1.0,1.0,57,0.00,,,0.00,Wunderground v.1.15,2013-03-03 09:21:00,
2013-03-03 02:26:00,43.4,28.7,29.96,South,183,0.0,0.0,56,0.00,,,0.00,Wunderground v.1.15,2013-03-03 09:26:00,
2013-03-03 02:31:00,43.3,28.2,29.96,South,184,0.0,0.0,55,0.00,,,0.00,Wunderground v.1.15,2013-03-03 09:31:00,
2013-03-03 02:36:00,43.0,27.9,29.96,South,183,0.0,0.0,55,0.00,,,0.00,Wunderground v.1.15,2013-03-03 09:36:00,
2013-03-03 02:41:00,42.9,28.3,29.96,South,183,0.0,0.0,56,0.00,,,0.00,Wunderground v.1.15,2013-03-03 09:41:00,
2013-03-03 02:46:00,42.7,28.1,29.96,South,183,0.0,0.0,56,0.00,,,0.00,Wunderground v.1.15,2013-03-03 09:46:00,
2013-03-03 02:51:00,42.5,27.9,29.96,South,183,0.0,0.0,56,0.00,,,0.00,Wunderground v.1.15,2013-03-03 09:51:00,
2013-03-03 02:56:00,42.4,28.2,29.96,South,183,0.0,0.0,57,0.00,,,0.00,Wunderground v.1.15,2013-03-03 09:56:00,
2013-03-03 03:01:00,42.3,28.6,29.95,South,183,0.0,0.0,58,0.00,,,0.00,Wunderground v.1.15,2013-03-03 10:01:00,
2013-03-03 03:06:00,42.5,27.9,29.95,South,183,0.0,1.0,56,0.00,,,0.00,Wunderground v.1.15,2013-03-03 10:06:00,
2013-03-03 03:11:00,42.4,29.1,29.95,South,183,0.0,1.0,59,0.00,,,0.00,Wunderground v.1.15,2013-03-03 10:11:00,
2013-03-03 03:17:00,41.7,27.6,29.95,South,183,1.0,1.0,57,0.00,,,0.00,Wunderground v.1.15,2013-03-03 10:17:00,